| time (UTC) | temp F | wind direction | speed knots | gust knots | rain 1hr in | rain 24hr in | rain mn in | humidity % | barometer mb |
| 20260906143643 | 89 | 275 | 0.9 | 0.9 | 0.00 | 0.00 | 0.00 | 55 | 1016.9 |
| 20260906143140 | 89 | 278 | 0.0 | 0.9 | 0.00 | 0.00 | 0.00 | 55 | 1017.1 |
| 20260906142639 | 89 | 278 | 1.7 | 1.7 | 0.00 | 0.00 | 0.00 | 56 | 1017.0 |
| 20260906142134 | 89 | 242 | 0.9 | 0.9 | 0.00 | 0.00 | 0.00 | 56 | 1017.0 |
| 20260906141633 | 89 | 242 | 0.0 | 1.7 | 0.00 | 0.00 | 0.00 | 56 | 1016.8 |
| 20260906141129 | 89 | 232 | 0.0 | 0.0 | 0.00 | 0.00 | 0.00 | 55 | 1016.9 |
| 20260906140628 | 89 | 232 | 0.0 | 0.9 | 0.00 | 0.00 | 0.00 | 56 | 1016.9 |
| 20260906140123 | 87 | 232 | 1.7 | 1.7 | 0.00 | 0.00 | 0.00 | 57 | 1016.8 |
| 20260906135620 | 87 | 110 | 0.9 | 3.5 | 0.00 | 0.00 | 0.00 | 58 | 1016.7 |
| 20260906135116 | 86 | 100 | 0.9 | 0.9 | 0.00 | 0.00 | 0.00 | 59 | 1016.7 |
| 20260906134611 | 85 | 244 | 0.9 | 1.7 | 0.00 | 0.00 | 0.00 | 61 | 1016.7 |
| 20260906134106 | 84 | 257 | 0.0 | 1.7 | 0.00 | 0.00 | 0.00 | 61 | 1016.5 |
| 20260906133602 | 83 | 325 | 0.0 | 0.9 | 0.00 | 0.00 | 0.00 | 63 | 1016.5 |
| 20260906133057 | 83 | 216 | 0.0 | 0.9 | 0.00 | 0.00 | 0.00 | 63 | 1016.5 |
| 20260906132552 | 82 | 28 | 0.0 | 0.0 | 0.00 | 0.00 | 0.00 | 66 | 1016.7 |
| 20260906132047 | 81 | 29 | 0.0 | 0.0 | 0.00 | 0.00 | 0.00 | 67 | 1016.5 |
| 20260906131543 | 80 | 29 | 0.0 | 0.0 | 0.00 | 0.00 | 0.00 | 70 | 1016.6 |
| 20260906131038 | 79 | 29 | 0.0 | 0.0 | 0.00 | 0.00 | 0.00 | 72 | 1016.6 |
| 20260906130537 | 78 | 28 | 0.0 | 0.0 | 0.00 | 0.00 | 0.00 | 73 | 1016.3 |
| 20260906130033 | 78 | 28 | 0.0 | 0.0 | 0.00 | 0.00 | 0.00 | 73 | 1016.5 |
| 20260906125531 | 77 | 28 | 0.0 | 0.0 | 0.00 | 0.00 | 0.00 | 74 | 1016.3 |
| 20260906125031 | 77 | 28 | 0.0 | 0.0 | 0.00 | 0.00 | 0.00 | 74 | 1016.3 |
| 20260906124526 | 77 | 28 | 0.0 | 0.0 | 0.00 | 0.00 | 0.00 | 74 | 1016.2 |
| 20260906124021 | 77 | 28 | 0.0 | 0.0 | 0.00 | 0.00 | 0.00 | 75 | 1016.1 |
| 20260906123520 | 76 | 28 | 0.0 | 0.0 | 0.00 | 0.00 | 0.00 | 75 | 1016.1 |
| 20260906123015 | 76 | 28 | 0.0 | 0.0 | 0.00 | 0.00 | 0.00 | 76 | 1016.1 |
| 20260906122509 | 76 | 28 | 0.0 | 0.0 | 0.00 | 0.00 | 0.00 | 76 | 1015.9 |
| 20260906122006 | 76 | 28 | 0.0 | 0.0 | 0.00 | 0.00 | 0.00 | 76 | 1016.1 |
| 20260906121501 | 76 | 28 | 0.0 | 0.0 | 0.00 | 0.00 | 0.00 | 76 | 1015.9 |
| 20260906120958 | 76 | 28 | 0.0 | 0.0 | 0.00 | 0.00 | 0.00 | 76 | 1015.7 |
| 20260906120453 | 76 | 28 | 0.0 | 0.0 | 0.00 | 0.00 | 0.00 | 75 | 1015.8 |
| 20260906115949 | 76 | 28 | 0.0 | 0.0 | 0.00 | 0.00 | 0.00 | 75 | 1015.7 |
| 20260906115444 | 76 | 28 | 0.0 | 0.0 | 0.00 | 0.00 | 0.00 | 75 | 1015.8 |
| 20260906114944 | 76 | 28 | 0.0 | 0.0 | 0.00 | 0.00 | 0.00 | 76 | 1015.7 |
| 20260906114438 | 76 | 28 | 0.0 | 0.0 | 0.00 | 0.00 | 0.00 | 76 | 1015.6 |
| 20260906113935 | 76 | 28 | 0.0 | 0.0 | 0.00 | 0.00 | 0.00 | 76 | 1015.5 |
| 20260906113433 | 76 | 28 | 0.0 | 0.0 | 0.00 | 0.00 | 0.00 | 75 | 1015.4 |
| 20260906112929 | 76 | 28 | 0.0 | 0.0 | 0.00 | 0.00 | 0.00 | 75 | 1015.5 |
| 20260906112424 | 76 | 28 | 0.0 | 0.0 | 0.00 | 0.00 | 0.00 | 75 | 1015.4 |
| 20260906111920 | 76 | 28 | 0.0 | 0.0 | 0.00 | 0.00 | 0.00 | 74 | 1015.1 |
| 20260906111419 | 77 | 28 | 0.0 | 0.0 | 0.00 | 0.00 | 0.00 | 74 | 1015.3 |
| 20260906110914 | 77 | 28 | 0.0 | 0.0 | 0.00 | 0.00 | 0.00 | 74 | 1015.3 |
| 20260906110410 | 77 | 28 | 0.0 | 0.0 | 0.00 | 0.00 | 0.00 | 73 | 1015.2 |
| 20260906105909 | 77 | 28 | 0.0 | 0.0 | 0.00 | 0.00 | 0.00 | 74 | 1015.2 |
| 20260906105404 | 77 | 28 | 0.0 | 0.0 | 0.00 | 0.00 | 0.00 | 73 | 1015.2 |
| 20260906104900 | 77 | 29 | 0.0 | 0.0 | 0.00 | 0.00 | 0.00 | 73 | 1015.1 |
| 20260906104359 | 77 | 29 | 0.0 | 0.0 | 0.00 | 0.00 | 0.00 | 73 | 1015.3 |
| 20260906103858 | 77 | 28 | 0.0 | 0.0 | 0.00 | 0.00 | 0.00 | 73 | 1015.2 |
| 20260906103356 | 77 | 28 | 0.0 | 0.0 | 0.00 | 0.00 | 0.00 | 73 | 1014.9 |
| 20260906102852 | 77 | 28 | 0.0 | 0.0 | 0.00 | 0.00 | 0.00 | 72 | 1015.1 |
| 20260906102351 | 77 | 28 | 0.0 | 0.0 | 0.00 | 0.00 | 0.00 | 72 | 1015.1 |
| 20260906101846 | 78 | 28 | 0.0 | 0.0 | 0.00 | 0.00 | 0.00 | 73 | 1015.1 |
| 20260906101341 | 78 | 28 | 0.0 | 0.0 | 0.00 | 0.00 | 0.00 | 72 | 1015.0 |
| 20260906100837 | 78 | 28 | 0.0 | 0.0 | 0.00 | 0.00 | 0.00 | 72 | 1014.9 |
| 20260906100336 | 78 | 29 | 0.0 | 0.0 | 0.00 | 0.00 | 0.00 | 72 | 1014.9 |
| 20260906095831 | 77 | 29 | 0.0 | 0.0 | 0.00 | 0.00 | 0.00 | 72 | 1015.0 |
| 20260906095327 | 78 | 28 | 0.0 | 0.0 | 0.00 | 0.00 | 0.00 | 73 | 1015.0 |
| 20260906094826 | 78 | 29 | 0.0 | 0.0 | 0.00 | 0.00 | 0.00 | 72 | 1015.0 |
| 20260906094321 | 77 | 29 | 0.0 | 0.0 | 0.00 | 0.00 | 0.00 | 73 | 1015.0 |
| 20260906093817 | 77 | 28 | 0.0 | 0.0 | 0.00 | 0.00 | 0.00 | 73 | 1014.9 |
| 20260906093313 | 78 | 29 | 0.0 | 0.0 | 0.00 | 0.00 | 0.00 | 73 | 1014.8 |
| 20260906092808 | 78 | 29 | 0.0 | 0.0 | 0.00 | 0.00 | 0.00 | 73 | 1014.8 |
| 20260906092305 | 78 | 28 | 0.0 | 0.0 | 0.00 | 0.00 | 0.00 | 72 | 1015.0 |
| 20260906091758 | 78 | 29 | 0.0 | 0.0 | 0.00 | 0.00 | 0.00 | 72 | 1014.8 |
| 20260906091254 | 78 | 29 | 0.0 | 0.0 | 0.00 | 0.00 | 0.00 | 72 | 1015.0 |
| 20260906090750 | 78 | 29 | 0.0 | 0.0 | 0.00 | 0.00 | 0.00 | 72 | 1014.9 |
| 20260906090249 | 78 | 29 | 0.0 | 0.0 | 0.00 | 0.00 | 0.00 | 72 | 1015.0 |
| 20260906085749 | 78 | 29 | 0.0 | 0.0 | 0.00 | 0.00 | 0.00 | 73 | 1014.9 |
| 20260906085248 | 78 | 29 | 0.0 | 0.0 | 0.00 | 0.00 | 0.00 | 72 | 1015.0 |
| 20260906084742 | 78 | 29 | 0.0 | 0.0 | 0.00 | 0.00 | 0.00 | 72 | 1014.9 |
| 20260906084236 | 79 | 29 | 0.0 | 0.0 | 0.00 | 0.00 | 0.00 | 71 | 1014.8 |
| 20260906083731 | 79 | 29 | 0.0 | 0.0 | 0.00 | 0.00 | 0.00 | 71 | 1014.8 |
| 20260906083227 | 78 | 29 | 0.0 | 0.0 | 0.00 | 0.00 | 0.00 | 70 | 1014.8 |
| 20260906082722 | 79 | 29 | 0.0 | 0.0 | 0.00 | 0.00 | 0.00 | 70 | 1014.6 |
| 20260906082217 | 78 | 29 | 0.0 | 0.0 | 0.00 | 0.00 | 0.00 | 70 | 1014.7 |
| 20260906081713 | 79 | 29 | 0.0 | 0.0 | 0.00 | 0.00 | 0.00 | 70 | 1014.8 |
| 20260906081208 | 79 | 29 | 0.0 | 0.0 | 0.00 | 0.00 | 0.00 | 71 | 1014.7 |
| 20260906080704 | 79 | 29 | 0.0 | 0.0 | 0.00 | 0.00 | 0.00 | 70 | 1014.8 |
| 20260906080200 | 79 | 29 | 0.0 | 0.0 | 0.00 | 0.00 | 0.00 | 69 | 1014.7 |
| 20260906075659 | 79 | 29 | 0.0 | 0.0 | 0.00 | 0.00 | 0.00 | 71 | 1014.6 |
| 20260906075149 | 79 | 29 | 0.0 | 0.0 | 0.00 | 0.00 | 0.00 | 71 | 1014.9 |
| 20260906074644 | 79 | 29 | 0.0 | 0.0 | 0.00 | 0.00 | 0.00 | 70 | 1014.8 |
| 20260906074143 | 80 | 29 | 0.0 | 0.0 | 0.00 | 0.00 | 0.00 | 70 | 1014.8 |
| 20260906073638 | 79 | 29 | 0.0 | 0.0 | 0.00 | 0.00 | 0.00 | 69 | 1014.9 |
| 20260906073134 | 80 | 29 | 0.0 | 0.0 | 0.00 | 0.00 | 0.00 | 69 | 1014.8 |
| 20260906072629 | 80 | 29 | 0.0 | 0.0 | 0.00 | 0.00 | 0.00 | 69 | 1014.8 |
| 20260906072125 | 80 | 29 | 0.0 | 0.0 | 0.00 | 0.00 | 0.00 | 69 | 1014.8 |
| 20260906071621 | 80 | 29 | 0.0 | 0.0 | 0.00 | 0.00 | 0.00 | 69 | 1014.8 |
| 20260906071120 | 80 | 29 | 0.0 | 0.0 | 0.00 | 0.00 | 0.00 | 68 | 1014.9 |
| 20260906070612 | 80 | 29 | 0.0 | 0.0 | 0.00 | 0.00 | 0.00 | 67 | 1014.8 |
| 20260906070107 | 80 | 29 | 0.0 | 0.0 | 0.00 | 0.00 | 0.00 | 67 | 1014.9 |
| 20260906065606 | 80 | 29 | 0.0 | 0.0 | 0.00 | 0.00 | 0.00 | 66 | 1014.8 |
| 20260906065102 | 81 | 29 | 0.0 | 0.0 | 0.00 | 0.00 | 0.00 | 65 | 1014.8 |
| 20260906064557 | 81 | 29 | 0.0 | 0.0 | 0.00 | 0.00 | 0.00 | 65 | 1014.7 |
| 20260906064052 | 81 | 29 | 0.0 | 0.0 | 0.00 | 0.00 | 0.00 | 64 | 1014.9 |
| 20260906063547 | 81 | 29 | 0.0 | 0.0 | 0.00 | 0.00 | 0.00 | 63 | 1014.7 |
| 20260906063043 | 82 | 29 | 0.0 | 0.0 | 0.00 | 0.00 | 0.00 | 63 | 1014.9 |
| 20260906062539 | 82 | 29 | 0.0 | 0.0 | 0.00 | 0.00 | 0.00 | 63 | 1014.9 |
| 20260906062032 | 82 | 29 | 0.0 | 0.0 | 0.00 | 0.00 | 0.00 | 63 | 1014.8 |
| 20260906061529 | 82 | 29 | 0.0 | 0.0 | 0.00 | 0.00 | 0.00 | 61 | 1014.9 |
| 20260906061028 | 82 | 29 | 0.0 | 0.0 | 0.00 | 0.00 | 0.00 | 61 | 1014.9 |
| 20260906060525 | 82 | 29 | 0.0 | 0.0 | 0.00 | 0.00 | 0.00 | 62 | 1014.9 |
| 20260906060021 | 82 | 29 | 0.0 | 0.0 | 0.00 | 0.00 | 0.00 | 63 | 1015.0 |
| 20260906055518 | 83 | 28 | 0.0 | 0.0 | 0.00 | 0.00 | 0.00 | 64 | 1015.0 |
| 20260906055013 | 82 | 29 | 0.0 | 0.0 | 0.00 | 0.00 | 0.00 | 61 | 1014.8 |
| 20260906054513 | 82 | 29 | 0.0 | 0.0 | 0.00 | 0.00 | 0.00 | 63 | 1014.7 |
| 20260906054008 | 82 | 29 | 0.0 | 0.0 | 0.00 | 0.00 | 0.00 | 63 | 1014.7 |
| 20260906053504 | 82 | 29 | 0.0 | 0.0 | 0.00 | 0.00 | 0.00 | 64 | 1014.9 |
| 20260906053000 | 82 | 28 | 0.0 | 0.0 | 0.00 | 0.00 | 0.00 | 64 | 1014.8 |
| 20260906052455 | 82 | 29 | 0.0 | 0.0 | 0.00 | 0.00 | 0.00 | 64 | 1014.3 |
| 20260906051952 | 82 | 29 | 0.0 | 0.0 | 0.00 | 0.00 | 0.00 | 65 | 1014.5 |
| 20260906051447 | 82 | 29 | 0.0 | 0.0 | 0.00 | 0.00 | 0.00 | 65 | 1014.6 |
| 20260906050943 | 82 | 29 | 0.0 | 0.0 | 0.00 | 0.00 | 0.00 | 65 | 1014.5 |
| 20260906050442 | 82 | 29 | 0.0 | 0.0 | 0.00 | 0.00 | 0.00 | 64 | 1014.5 |
| 20260906045942 | 82 | 29 | 0.0 | 0.0 | 0.00 | 0.00 | 0.00 | 64 | 1014.6 |
| 20260906045440 | 82 | 29 | 0.0 | 0.0 | 0.00 | 0.00 | 0.00 | 63 | 1014.4 |
| 20260906044937 | 82 | 29 | 0.0 | 0.0 | 0.00 | 0.00 | 0.00 | 62 | 1014.5 |
| 20260906044432 | 83 | 29 | 0.0 | 0.0 | 0.00 | 0.00 | 0.00 | 61 | 1014.7 |
| 20260906043927 | 83 | 29 | 0.0 | 0.0 | 0.00 | 0.00 | 0.00 | 60 | 1014.5 |
| 20260906043423 | 83 | 29 | 0.0 | 0.0 | 0.00 | 0.00 | 0.00 | 60 | 1014.4 |
| 20260906042919 | 84 | 29 | 0.0 | 0.0 | 0.00 | 0.00 | 0.00 | 59 | 1014.5 |
| 20260906042418 | 84 | 29 | 0.0 | 0.0 | 0.00 | 0.00 | 0.00 | 59 | 1014.5 |
| 20260906041913 | 84 | 29 | 0.0 | 0.0 | 0.00 | 0.00 | 0.00 | 58 | 1014.7 |
| 20260906041409 | 85 | 29 | 0.0 | 0.0 | 0.00 | 0.00 | 0.00 | 57 | 1014.7 |
| 20260906040909 | 86 | 29 | 0.0 | 0.0 | 0.00 | 0.00 | 0.00 | 56 | 1014.6 |
| 20260906040404 | 86 | 28 | 0.0 | 0.0 | 0.00 | 0.00 | 0.00 | 56 | 1014.6 |
| 20260906035859 | 86 | 28 | 0.0 | 0.0 | 0.00 | 0.00 | 0.00 | 55 | 1014.8 |
| 20260906035355 | 87 | 29 | 0.0 | 0.0 | 0.00 | 0.00 | 0.00 | 54 | 1014.5 |
| 20260906034849 | 87 | 28 | 0.0 | 0.0 | 0.00 | 0.00 | 0.00 | 52 | 1014.5 |
| 20260906034344 | 87 | 28 | 0.0 | 0.0 | 0.00 | 0.00 | 0.00 | 53 | 1014.7 |
| 20260906033840 | 88 | 29 | 0.0 | 0.0 | 0.00 | 0.00 | 0.00 | 51 | 1014.6 |
| 20260906033339 | 88 | 28 | 0.0 | 0.0 | 0.00 | 0.00 | 0.00 | 52 | 1014.4 |
| 20260906032836 | 88 | 28 | 0.0 | 0.0 | 0.00 | 0.00 | 0.00 | 51 | 1014.5 |
| 20260906032332 | 88 | 28 | 0.0 | 0.0 | 0.00 | 0.00 | 0.00 | 51 | 1014.5 |
| 20260906031827 | 89 | 28 | 0.0 | 0.0 | 0.00 | 0.00 | 0.00 | 51 | 1014.5 |
| 20260906031322 | 89 | 28 | 0.0 | 0.0 | 0.00 | 0.00 | 0.00 | 50 | 1014.5 |
| 20260906030821 | 89 | 28 | 0.0 | 0.9 | 0.00 | 0.00 | 0.00 | 50 | 1014.5 |
| 20260906030317 | 89 | 28 | 0.0 | 0.0 | 0.00 | 0.00 | 0.00 | 51 | 1014.4 |
| 20260906025817 | 89 | 28 | 0.0 | 0.0 | 0.00 | 0.00 | 0.00 | 50 | 1014.3 |
| 20260906025311 | 89 | 28 | 0.0 | 0.0 | 0.00 | 0.00 | 0.00 | 50 | 1014.4 |
| 20260906024810 | 89 | 28 | 0.0 | 0.9 | 0.00 | 0.00 | 0.00 | 50 | 1014.4 |
| 20260906024304 | 88 | 28 | 0.0 | 0.0 | 0.00 | 0.00 | 0.00 | 51 | 1014.3 |
| 20260906023759 | 88 | 28 | 0.0 | 0.0 | 0.00 | 0.00 | 0.00 | 51 | 1014.2 |
| 20260906023254 | 88 | 28 | 0.0 | 0.0 | 0.00 | 0.00 | 0.00 | 51 | 1014.3 |
| 20260906022750 | 88 | 28 | 0.0 | 0.0 | 0.00 | 0.00 | 0.00 | 52 | 1014.2 |
| 20260906022245 | 88 | 28 | 0.0 | 0.0 | 0.00 | 0.00 | 0.00 | 53 | 1014.0 |
| 20260906021741 | 88 | 28 | 0.0 | 0.0 | 0.00 | 0.00 | 0.00 | 53 | 1014.0 |
| 20260906021240 | 89 | 28 | 0.0 | 0.0 | 0.00 | 0.00 | 0.00 | 52 | 1014.0 |
| 20260906020735 | 89 | 28 | 0.0 | 0.0 | 0.00 | 0.00 | 0.00 | 52 | 1014.0 |
| 20260906020235 | 89 | 28 | 0.0 | 0.0 | 0.00 | 0.00 | 0.00 | 51 | 1013.8 |
| 20260906015730 | 90 | 28 | 0.0 | 0.0 | 0.00 | 0.00 | 0.00 | 50 | 1013.8 |
| 20260906015228 | 90 | 28 | 0.0 | 0.0 | 0.00 | 0.00 | 0.00 | 49 | 1013.7 |
| 20260906014723 | 91 | 28 | 0.0 | 0.0 | 0.00 | 0.00 | 0.00 | 49 | 1013.8 |
| 20260906014219 | 91 | 28 | 0.0 | 0.0 | 0.00 | 0.00 | 0.00 | 48 | 1013.7 |
| 20260906013714 | 92 | 28 | 0.0 | 0.0 | 0.00 | 0.00 | 0.00 | 46 | 1013.8 |
| 20260906013214 | 92 | 28 | 0.0 | 0.0 | 0.00 | 0.00 | 0.00 | 45 | 1013.7 |
| 20260906012709 | 93 | 28 | 0.0 | 0.0 | 0.00 | 0.00 | 0.00 | 44 | 1013.6 |
| 20260906012204 | 93 | 29 | 0.0 | 0.0 | 0.00 | 0.00 | 0.00 | 44 | 1013.5 |
| 20260906011659 | 94 | 29 | 0.0 | 1.7 | 0.00 | 0.00 | 0.00 | 43 | 1013.6 |
| 20260906011154 | 94 | 56 | 0.0 | 0.0 | 0.00 | 0.00 | 0.00 | 43 | 1013.5 |
| 20260906010649 | 94 | 57 | 0.0 | 0.9 | 0.00 | 0.00 | 0.00 | 43 | 1013.4 |
| 20260906010146 | 94 | 322 | 0.0 | 0.0 | 0.00 | 0.00 | 0.00 | 43 | 1013.3 |
| 20260906005645 | 95 | 322 | 0.9 | 0.9 | 0.00 | 0.00 | 0.00 | 43 | 1013.2 |
| 20260906005144 | 95 | 321 | 0.0 | 0.9 | 0.00 | 0.00 | 0.00 | 41 | 1013.3 |
| 20260906004643 | 96 | 321 | 0.9 | 1.7 | 0.00 | 0.00 | 0.00 | 41 | 1013.1 |
| 20260906004139 | 96 | 51 | 1.7 | 1.7 | 0.00 | 0.00 | 0.00 | 41 | 1013.2 |
| 20260906003634 | 96 | 0 | 0.9 | 2.6 | 0.00 | 0.00 | 0.00 | 40 | 1013.2 |
| 20260906003130 | 96 | 1 | 0.9 | 2.6 | 0.00 | 0.00 | 0.00 | 40 | 1013.2 |
| 20260906002625 | 97 | 232 | 0.0 | 0.9 | 0.00 | 0.00 | 0.00 | 40 | 1013.2 |
| 20260906002119 | 97 | 76 | 0.9 | 1.7 | 0.00 | 0.00 | 0.00 | 40 | 1013.2 |
| 20260906001609 | 97 | 71 | 0.9 | 0.9 | 0.00 | 0.00 | 0.00 | 39 | 1013.2 |
| 20260906001108 | 97 | 322 | 0.0 | 0.9 | 0.00 | 0.00 | 0.00 | 39 | 1013.1 |
| 20260906000605 | 97 | 328 | 0.0 | 1.7 | 0.00 | 0.00 | 0.00 | 39 | 1013.1 |
| 20260906000100 | 98 | 316 | 0.9 | 2.6 | 0.00 | 0.00 | 0.00 | 38 | 1013.0 |
| 20260905235559 | 98 | 290 | 0.0 | 3.5 | 0.00 | 0.00 | 0.00 | 38 | 1013.1 |
| 20260905235054 | 99 | 33 | 0.0 | 2.6 | 0.00 | 0.00 | 0.00 | 38 | 1012.8 |
| 20260905234549 | 99 | 58 | 0.9 | 2.6 | 0.00 | 0.00 | 0.00 | 38 | 1013.1 |
| 20260905234044 | 98 | 252 | 0.9 | 1.7 | 0.00 | 0.00 | 0.00 | 37 | 1013.1 |
| 20260905233539 | 98 | 239 | 0.0 | 1.7 | 0.00 | 0.00 | 0.00 | 39 | 1012.8 |
| 20260905233039 | 99 | 63 | 0.0 | 1.7 | 0.00 | 0.00 | 0.00 | 38 | 1012.8 |
| 20260905232534 | 99 | 320 | 1.7 | 3.5 | 0.00 | 0.00 | 0.00 | 39 | 1013.0 |
| 20260905232030 | 99 | 11 | 0.9 | 2.6 | 0.00 | 0.00 | 0.00 | 38 | 1012.6 |
| 20260905231525 | 99 | 46 | 1.7 | 5.2 | 0.00 | 0.00 | 0.00 | 38 | 1012.7 |
| 20260905231021 | 100 | 221 | 0.0 | 2.6 | 0.00 | 0.00 | 0.00 | 38 | 1012.7 |
| 20260905230520 | 100 | 81 | 1.7 | 3.5 | 0.00 | 0.00 | 0.00 | 37 | 1012.6 |
| 20260905230019 | 100 | 221 | 0.0 | 1.7 | 0.00 | 0.00 | 0.00 | 37 | 1012.6 |
| 20260905225514 | 100 | 35 | 0.9 | 2.6 | 0.00 | 0.00 | 0.00 | 38 | 1012.5 |
| 20260905225009 | 100 | 311 | 0.0 | 2.6 | 0.00 | 0.00 | 0.00 | 36 | 1012.7 |
| 20260905224504 | 101 | 24 | 3.5 | 3.5 | 0.00 | 0.00 | 0.00 | 36 | 1012.5 |
| 20260905224003 | 101 | 269 | 0.9 | 2.6 | 0.00 | 0.00 | 0.00 | 36 | 1012.5 |
| 20260905223501 | 101 | 94 | 1.7 | 2.6 | 0.00 | 0.00 | 0.00 | 36 | 1012.4 |
| 20260905222956 | 101 | 260 | 0.9 | 3.5 | 0.00 | 0.00 | 0.00 | 35 | 1012.5 |
| 20260905222456 | 102 | 131 | 0.0 | 1.7 | 0.00 | 0.00 | 0.00 | 34 | 1012.6 |
| 20260905221951 | 102 | 283 | 1.7 | 2.6 | 0.00 | 0.00 | 0.00 | 34 | 1012.5 |
| 20260905221448 | 102 | 179 | 0.9 | 1.7 | 0.00 | 0.00 | 0.00 | 34 | 1012.6 |
| 20260905220944 | 102 | 329 | 0.9 | 2.6 | 0.00 | 0.00 | 0.00 | 35 | 1012.6 |
| 20260905220439 | 103 | 264 | 0.9 | 3.5 | 0.00 | 0.00 | 0.00 | 34 | 1012.7 |
| 20260905215938 | 103 | 357 | 0.0 | 3.5 | 0.00 | 0.00 | 0.00 | 34 | 1012.7 |
| 20260905215434 | 102 | 159 | 0.9 | 6.1 | 0.00 | 0.00 | 0.00 | 34 | 1012.8 |
| 20260905214930 | 102 | 267 | 0.0 | 2.6 | 0.00 | 0.00 | 0.00 | 34 | 1012.8 |
| 20260905214425 | 103 | 20 | 1.7 | 3.5 | 0.00 | 0.00 | 0.00 | 34 | 1013.1 |
| 20260905213920 | 102 | 73 | 0.9 | 7.8 | 0.00 | 0.00 | 0.00 | 35 | 1013.1 |
| 20260905213416 | 102 | 235 | 1.7 | 2.6 | 0.00 | 0.00 | 0.00 | 34 | 1013.0 |
| 20260905212911 | 102 | 263 | 2.6 | 3.5 | 0.00 | 0.00 | 0.00 | 33 | 1013.4 |
| 20260905212406 | 101 | 29 | 0.9 | 7.0 | 0.00 | 0.00 | 0.00 | 36 | 1013.3 |
| 20260905211900 | 102 | 319 | 0.0 | 3.5 | 0.00 | 0.00 | 0.00 | 36 | 1013.5 |
| 20260905211355 | 102 | 88 | 2.6 | 3.5 | 0.00 | 0.00 | 0.00 | 35 | 1013.4 |
| 20260905210852 | 102 | 246 | 3.5 | 6.1 | 0.00 | 0.00 | 0.00 | 35 | 1013.7 |
| 20260905210351 | 102 | 230 | 0.9 | 2.6 | 0.00 | 0.00 | 0.00 | 35 | 1013.5 |
| 20260905205850 | 101 | 54 | 2.6 | 6.1 | 0.00 | 0.00 | 0.00 | 37 | 1013.5 |
| 20260905205345 | 102 | 319 | 1.7 | 6.1 | 0.00 | 0.00 | 0.00 | 36 | 1013.7 |
| 20260905204844 | 101 | 251 | 0.9 | 5.2 | 0.00 | 0.00 | 0.00 | 37 | 1013.6 |
| 20260905204340 | 102 | 30 | 0.9 | 3.5 | 0.00 | 0.00 | 0.00 | 36 | 1013.7 |
| 20260905203833 | 101 | 277 | 0.9 | 3.5 | 0.00 | 0.00 | 0.00 | 36 | 1013.8 |
| 20260905203330 | 101 | 110 | 0.0 | 6.1 | 0.00 | 0.00 | 0.00 | 37 | 1014.0 |
| 20260905202825 | 101 | 358 | 0.0 | 1.7 | 0.00 | 0.00 | 0.00 | 36 | 1013.9 |
| 20260905202320 | 102 | 266 | 1.7 | 3.5 | 0.00 | 0.00 | 0.00 | 36 | 1014.1 |
| 20260905201815 | 100 | 47 | 0.9 | 3.5 | 0.00 | 0.00 | 0.00 | 37 | 1014.1 |
| 20260905201311 | 101 | 94 | 0.0 | 6.1 | 0.00 | 0.00 | 0.00 | 37 | 1014.2 |
| 20260905200810 | 101 | 261 | 2.6 | 3.5 | 0.00 | 0.00 | 0.00 | 36 | 1014.2 |
| 20260905200307 | 102 | 87 | 0.9 | 5.2 | 0.00 | 0.00 | 0.00 | 36 | 1014.5 |
| 20260905195804 | 101 | 291 | 0.9 | 3.5 | 0.00 | 0.00 | 0.00 | 37 | 1014.5 |
| 20260905195300 | 101 | 245 | 2.6 | 6.1 | 0.00 | 0.00 | 0.00 | 36 | 1014.5 |
| 20260905194755 | 101 | 201 | 2.6 | 6.1 | 0.00 | 0.00 | 0.00 | 36 | 1014.6 |
| 20260905194254 | 101 | 252 | 2.6 | 5.2 | 0.00 | 0.00 | 0.00 | 37 | 1014.8 |
| 20260905193749 | 100 | 109 | 3.5 | 3.5 | 0.00 | 0.00 | 0.00 | 38 | 1014.7 |
| 20260905193243 | 101 | 109 | 1.7 | 3.5 | 0.00 | 0.00 | 0.00 | 37 | 1014.8 |
| 20260905192738 | 101 | 262 | 3.5 | 7.0 | 0.00 | 0.00 | 0.00 | 37 | 1014.9 |
| 20260905192235 | 100 | 240 | 0.9 | 3.5 | 0.00 | 0.00 | 0.00 | 38 | 1014.9 |
| 20260905191734 | 101 | 145 | 0.0 | 3.5 | 0.00 | 0.00 | 0.00 | 36 | 1015.1 |
| 20260905191232 | 100 | 262 | 3.5 | 6.1 | 0.00 | 0.00 | 0.00 | 37 | 1015.1 |
| 20260905190731 | 101 | 294 | 1.7 | 5.2 | 0.00 | 0.00 | 0.00 | 38 | 1015.1 |
| 20260905190230 | 100 | 245 | 0.9 | 2.6 | 0.00 | 0.00 | 0.00 | 38 | 1015.2 |
| 20260905185729 | 100 | 226 | 0.9 | 2.6 | 0.00 | 0.00 | 0.00 | 39 | 1015.3 |
| 20260905185224 | 99 | 303 | 2.6 | 5.2 | 0.00 | 0.00 | 0.00 | 38 | 1015.5 |
| 20260905184719 | 100 | 57 | 3.5 | 5.2 | 0.00 | 0.00 | 0.00 | 39 | 1015.6 |
| 20260905184217 | 100 | 119 | 0.9 | 1.7 | 0.00 | 0.00 | 0.00 | 39 | 1015.6 |
| 20260905183712 | 100 | 28 | 0.9 | 1.7 | 0.00 | 0.00 | 0.00 | 39 | 1015.6 |
| 20260905183207 | 101 | 344 | 0.0 | 1.7 | 0.00 | 0.00 | 0.00 | 38 | 1015.7 |
| 20260905182701 | 98 | 91 | 0.0 | 2.6 | 0.00 | 0.00 | 0.00 | 42 | 1015.8 |
| 20260905182200 | 100 | 53 | 3.5 | 5.2 | 0.00 | 0.00 | 0.00 | 40 | 1015.9 |
| 20260905181655 | 100 | 304 | 4.3 | 6.1 | 0.00 | 0.00 | 0.00 | 39 | 1015.9 |
| 20260905181149 | 99 | 24 | 3.5 | 6.1 | 0.00 | 0.00 | 0.00 | 39 | 1015.9 |
| 20260905180644 | 97 | 204 | 0.9 | 1.7 | 0.00 | 0.00 | 0.00 | 42 | 1015.9 |
| 20260905180139 | 98 | 259 | 2.6 | 5.2 | 0.00 | 0.00 | 0.00 | 42 | 1015.8 |
| 20260905175638 | 98 | 92 | 1.7 | 2.6 | 0.00 | 0.00 | 0.00 | 42 | 1015.8 |
| 20260905175134 | 98 | 51 | 1.7 | 2.6 | 0.00 | 0.00 | 0.00 | 44 | 1016.1 |
| 20260905174629 | 98 | 240 | 0.9 | 2.6 | 0.00 | 0.00 | 0.00 | 42 | 1016.3 |
| 20260905174125 | 98 | 9 | 2.6 | 3.5 | 0.00 | 0.00 | 0.00 | 44 | 1016.4 |
| 20260905173620 | 97 | 78 | 1.7 | 3.5 | 0.00 | 0.00 | 0.00 | 43 | 1016.3 |
| 20260905173115 | 98 | 229 | 2.6 | 3.5 | 0.00 | 0.00 | 0.00 | 42 | 1016.4 |
| 20260905172609 | 96 | 249 | 0.9 | 3.5 | 0.00 | 0.00 | 0.00 | 44 | 1016.4 |
| 20260905172104 | 98 | 48 | 2.6 | 3.5 | 0.00 | 0.00 | 0.00 | 43 | 1016.4 |
| 20260905171601 | 98 | 221 | 2.6 | 5.2 | 0.00 | 0.00 | 0.00 | 43 | 1016.5 |
| 20260905171056 | 96 | 30 | 0.0 | 2.6 | 0.00 | 0.00 | 0.00 | 45 | 1016.6 |
| 20260905170553 | 97 | 49 | 2.6 | 5.2 | 0.00 | 0.00 | 0.00 | 46 | 1016.5 |
| 20260905170048 | 97 | 180 | 0.9 | 2.6 | 0.00 | 0.00 | 0.00 | 45 | 1016.6 |
| 20260905165543 | 96 | 225 | 3.5 | 6.1 | 0.00 | 0.00 | 0.00 | 45 | 1016.5 |
| 20260905165037 | 96 | 161 | 0.0 | 3.5 | 0.00 | 0.00 | 0.00 | 45 | 1016.4 |
| 20260905164532 | 96 | 48 | 0.9 | 2.6 | 0.00 | 0.00 | 0.00 | 45 | 1016.6 |
| 20260905164027 | 97 | 305 | 4.3 | 5.2 | 0.00 | 0.00 | 0.00 | 45 | 1016.7 |
| 20260905163523 | 98 | 152 | 0.9 | 1.7 | 0.00 | 0.00 | 0.00 | 43 | 1016.7 |
| 20260905163019 | 96 | 232 | 0.9 | 1.7 | 0.00 | 0.00 | 0.00 | 45 | 1016.7 |
| 20260905162515 | 96 | 234 | 0.9 | 3.5 | 0.00 | 0.00 | 0.00 | 46 | 1016.6 |
| 20260905162009 | 96 | 64 | 0.0 | 2.6 | 0.00 | 0.00 | 0.00 | 46 | 1016.7 |
| 20260905161508 | 96 | 262 | 0.9 | 2.6 | 0.00 | 0.00 | 0.00 | 45 | 1016.7 |
| 20260905161006 | 95 | 268 | 1.7 | 2.6 | 0.00 | 0.00 | 0.00 | 47 | 1016.8 |
| 20260905160500 | 94 | 279 | 2.6 | 3.5 | 0.00 | 0.00 | 0.00 | 48 | 1016.7 |
| 20260905160000 | 94 | 224 | 0.9 | 3.5 | 0.00 | 0.00 | 0.00 | 48 | 1016.7 |
| 20260905155455 | 94 | 232 | 1.7 | 3.5 | 0.00 | 0.00 | 0.00 | 48 | 1016.5 |
| 20260905154953 | 94 | 235 | 1.7 | 3.5 | 0.00 | 0.00 | 0.00 | 50 | 1016.4 |
| 20260905154448 | 93 | 279 | 1.7 | 3.5 | 0.00 | 0.00 | 0.00 | 50 | 1016.5 |
| 20260905153943 | 93 | 199 | 1.7 | 2.6 | 0.00 | 0.00 | 0.00 | 50 | 1016.5 |
| 20260905153440 | 92 | 93 | 1.7 | 5.2 | 0.00 | 0.00 | 0.00 | 51 | 1016.6 |
| 20260905152939 | 93 | 225 | 3.5 | 5.2 | 0.00 | 0.00 | 0.00 | 50 | 1016.5 |
| 20260905152439 | 92 | 133 | 0.0 | 0.9 | 0.00 | 0.00 | 0.00 | 51 | 1016.4 |
| 20260905151934 | 92 | 155 | 1.7 | 3.5 | 0.00 | 0.00 | 0.00 | 51 | 1016.5 |
| 20260905151430 | 92 | 188 | 0.9 | 2.6 | 0.00 | 0.00 | 0.00 | 52 | 1016.4 |
| 20260905150925 | 91 | 254 | 1.7 | 3.5 | 0.00 | 0.00 | 0.00 | 53 | 1016.4 |
| 20260905150424 | 90 | 35 | 0.0 | 2.6 | 0.00 | 0.00 | 0.00 | 54 | 1016.4 |
| 20260905145920 | 91 | 237 | 1.7 | 3.5 | 0.00 | 0.00 | 0.00 | 53 | 1016.5 |
| 20260905145415 | 90 | 320 | 1.7 | 3.5 | 0.00 | 0.00 | 0.00 | 54 | 1016.6 |
| 20260905144909 | 89 | 308 | 0.0 | 2.6 | 0.00 | 0.00 | 0.00 | 54 | 1016.5 |
| 20260905144405 | 89 | 235 | 2.6 | 3.5 | 0.00 | 0.00 | 0.00 | 55 | 1016.4 |
| 20260905143903 | 89 | 261 | 2.6 | 2.6 | 0.00 | 0.00 | 0.00 | 55 | 1016.3 |